Weather History for KCQT - November, 2013

Change the Weather History Date:

Wednesday, November 13, 2013

  Actual Average Record
Temperature  
Mean Temperature 75 °F 63 °F  
Max Temperature 92 °F 74 °F 96 °F (1933)
Min Temperature 58 °F 53 °F 35 °F (1880)
Degree Days  
Heating Degree Days 0 3  
Month to date heating degree days 2 31  
Since 1 July heating degree days 26 51  
Cooling Degree Days 10 1  
Month to date cooling degree days 35 23  
Year to date cooling degree days 1199 1230  
Growing Degree Days 24 (Base 50)    
Moisture  
Dew Point 37 °F    
Average Humidity 38    
Maximum Humidity 62    
Minimum Humidity 13    
Precipitation  
Precipitation 0.00 in 0.03 in 0.99 in (1884)
Month to date precipitation T 0.37  
Year to date precipitation 2.78 11.93  
Since 1 July precipitation 0.15 1.32  
Sea Level Pressure  
Sea Level Pressure 29.95 in    
Wind  
Wind Speed 1 mph (NNW)    
Max Wind Speed 6 mph    
Max Gust Speed 9 mph    
Visibility 10 miles    
Events      
T = Trace of Precipitation, MM = Missing Value Source: NWS Daily Summary

Daily Weather History Graph

Daily Weather History Graph

Search for Another Location

Airport or City:

Trip Planner

Search our weather history database for the weather conditions in past years. The results will help you decide how hot, cold, wet, or windy it might be!

Date:

Astronomy

Nov. 13, 2013 Rise Set
Actual Time 6:24 AM PST 4:50 PM PST
Civil Twilight 5:57 AM PST 5:16 PM PST
Nautical Twilight 5:27 AM PST 5:47 PM PST
Astronomical Twilight 4:57 AM PST 6:16 PM PST
Moon 2:31 PM PST (11/13) 2:32 AM PST (11/13)
Length of Visible Light 11h 19m
Length of Day
10h 26m
Waxing Gibbous, 85% of the Moon is Illuminated
Nov 13
Waxing Gibbous
Nov 17
Full
Nov 25
Last Quarter
Dec 2
New
Dec 9
First Quarter

Hourly Weather History & Observations

Time (PST) Temp. Dew Point Humidity Pressure Visibility Wind Dir Wind Speed Gust Speed Precip Events Conditions
12:47 AM 57.9 °F 45.0 °F 62% 30.04 in 10.0 mi Calm Calm - N/A   Clear
1:47 AM 57.9 °F 41.0 °F 53% 30.03 in 10.0 mi Calm Calm - N/A   Clear
2:47 AM 63.0 °F 33.1 °F 33% 30.01 in 10.0 mi Calm Calm - N/A   Clear
3:47 AM 62.1 °F 33.1 °F 34% 30.00 in 10.0 mi Calm Calm - N/A   Clear
4:47 AM 60.1 °F 34.0 °F 38% 30.00 in 9.0 mi Calm Calm - N/A   Clear
5:47 AM 59.0 °F 34.0 °F 39% 29.99 in 10.0 mi Calm Calm - N/A   Clear
6:47 AM 64.9 °F 32.0 °F 29% 30.00 in 10.0 mi NNE 4.6 mph - N/A   Clear
7:47 AM 69.1 °F 33.1 °F 26% 30.02 in 10.0 mi NNE 3.5 mph - N/A   Clear
8:47 AM 75.0 °F 33.1 °F 22% 30.00 in 10.0 mi Calm Calm - N/A   Clear
9:47 AM 82.9 °F 32.0 °F 16% 29.99 in 10.0 mi Calm Calm - N/A   Clear
10:47 AM 87.1 °F 32.0 °F 14% 29.98 in 10.0 mi Calm Calm - N/A   Clear
11:47 AM 90.0 °F 32.0 °F 13% 29.94 in 10.0 mi Calm Calm - N/A   Clear
12:47 PM 91.0 °F 33.1 °F 13% 29.91 in 10.0 mi Calm Calm - N/A   Clear
1:47 PM 89.1 °F 37.0 °F 16% 29.89 in 10.0 mi West 3.5 mph - N/A   Clear
2:47 PM 86.0 °F 34.0 °F 16% 29.88 in 10.0 mi Calm Calm - N/A   Clear
3:47 PM 84.0 °F 35.1 °F 17% 29.88 in 10.0 mi West 3.5 mph - N/A   Clear
4:47 PM 80.1 °F 35.1 °F 20% 29.87 in 10.0 mi Calm Calm - N/A   Clear
5:47 PM 75.0 °F 46.0 °F 36% 29.88 in 10.0 mi Calm Calm - N/A   Clear
6:47 PM 72.0 °F 52.0 °F 49% 29.90 in 10.0 mi Calm Calm - N/A   Clear
7:47 PM 70.0 °F 50.0 °F 49% 29.90 in 10.0 mi Calm Calm - N/A   Clear
8:47 PM 70.0 °F 42.1 °F 36% 29.90 in 10.0 mi Calm Calm - N/A   Clear
9:47 PM 68.0 °F 41.0 °F 37% 29.92 in 10.0 mi Calm Calm - N/A   Clear
10:47 PM 69.1 °F 33.1 °F 26% 29.91 in 10.0 mi Calm Calm - N/A   Clear
11:47 PM 69.1 °F 32.0 °F 25% 29.91 in 10.0 mi Calm Calm - N/A   Clear